TimeEDT,TemperatureF,Dew PointF,Humidity,Sea Level PressureIn,VisibilityMPH,Wind Direction,Wind SpeedMPH,Gust SpeedMPH,PrecipitationIn,Events,Conditions,WindDirDegrees,DateUTC
12:53 AM,66.9,57.9,73,30.18,10.0,South,4.6,-,N/A,,Scattered Clouds,180,2012-09-13 04:53:00
1:53 AM,66.0,57.9,75,30.18,10.0,South,5.8,-,N/A,,Scattered Clouds,180,2012-09-13 05:53:00
2:53 AM,64.0,57.0,78,30.18,10.0,South,8.1,-,N/A,,Scattered Clouds,180,2012-09-13 06:53:00
3:53 AM,63.0,57.0,81,30.19,10.0,SSW,6.9,-,N/A,,Partly Cloudy,200,2012-09-13 07:53:00
4:53 AM,64.0,57.9,80,30.19,10.0,South,5.8,-,N/A,,Mostly Cloudy,180,2012-09-13 08:53:00
5:53 AM,66.0,57.9,75,30.20,10.0,SSW,5.8,-,N/A,,Overcast,210,2012-09-13 09:53:00
6:53 AM,64.9,59.0,81,30.22,10.0,South,4.6,-,N/A,,Overcast,170,2012-09-13 10:53:00
7:53 AM,66.0,59.0,78,30.23,10.0,South,4.6,-,N/A,,Overcast,170,2012-09-13 11:53:00
8:53 AM,66.9,59.0,76,30.23,10.0,South,6.9,-,N/A,,Overcast,180,2012-09-13 12:53:00
9:53 AM,70.0,59.0,68,30.25,10.0,SSW,10.4,-,N/A,,Overcast,200,2012-09-13 13:53:00
10:53 AM,73.0,59.0,61,30.25,10.0,SW,10.4,-,N/A,,Mostly Cloudy,220,2012-09-13 14:53:00
11:53 AM,75.9,60.1,58,30.24,10.0,SW,8.1,-,N/A,,Overcast,230,2012-09-13 15:53:00
12:53 PM,78.1,59.0,52,30.23,10.0,SW,8.1,17.3,N/A,,Mostly Cloudy,230,2012-09-13 16:53:00
1:53 PM,80.1,59.0,48,30.22,10.0,West,8.1,-,N/A,,Mostly Cloudy,260,2012-09-13 17:53:00
2:53 PM,79.0,59.0,50,30.19,10.0,West,8.1,-,N/A,,Overcast,260,2012-09-13 18:53:00
3:53 PM,78.1,55.9,46,30.18,10.0,SW,10.4,-,N/A,,Overcast,230,2012-09-13 19:53:00
4:53 PM,73.9,61.0,64,30.19,10.0,NW,15.0,-,N/A,,Overcast,320,2012-09-13 20:53:00
5:53 PM,68.0,57.9,70,30.21,10.0,NW,15.0,-,0.00,,Overcast,320,2012-09-13 21:53:00
6:53 PM,66.9,57.0,70,30.22,10.0,North,10.4,-,N/A,,Overcast,360,2012-09-13 22:53:00
7:53 PM,63.0,53.1,70,30.24,10.0,North,10.4,18.4,0.00,,Overcast,360,2012-09-13 23:53:00
8:53 PM,59.0,55.0,87,30.28,8.0,North,9.2,-,0.02,Rain,Light Rain,350,2012-09-14 00:53:00
9:53 PM,57.9,55.9,93,30.27,7.0,NNE,5.8,-,0.03,Rain,Light Rain,20,2012-09-14 01:53:00
10:33 PM,57.2,57.2,100,30.27,4.0,NNE,3.5,-,0.01,Rain,Light Rain,30,2012-09-14 02:33:00
10:45 PM,57.2,57.2,100,30.28,8.0,North,3.5,-,0.01,Rain,Light Rain,10,2012-09-14 02:45:00
10:53 PM,57.9,57.0,97,30.28,9.0,North,5.8,-,0.01,Rain,Light Rain,360,2012-09-14 02:53:00
11:06 PM,57.2,55.4,94,30.28,4.0,NNE,5.8,-,0.02,Rain,Rain,20,2012-09-14 03:06:00
11:53 PM,57.0,55.9,96,30.30,3.0,North,6.9,-,0.09,Rain,Rain,350,2012-09-14 03:53:00